Regional Weather Roundup
Issued by NWS Charleston, WV

Home | Current Version | Previous Version | Graphics & Text | Print | Product List | Glossary On
Versions: 1 2 3 4 5 6 7 8 9 10 11 12 13 14 15 16 17 18 19 20 21 22 23 24 25 26 27 28 29 30 31 32 33 34 35 36 37 38 39 40 41 42 43 44 45 46 47 48 49 50
000
ASUS41 KRLX 221910
RWRRLX
West Virginia Regional Weather Roundup
National Weather Service Charleston WV
200 PM EST WED FEB 22 2017

Note: "fair" indicates few or no clouds below 12,000 feet with no
significant weather and/or obstructions to visibility.

WVZ003-222000-
Northern Panhandle of West Virginia

CITY           SKY/WX    TMP DP  RH WIND       PRES   REMARKS
WHEELING       PTSUNNY   63  48  58 W7        29.87F
$$

WVZ009-222000-
Northwest West Virginia

CITY           SKY/WX    TMP DP  RH WIND       PRES   REMARKS
PARKERSBURG    CLOUDY    58  52  80 S6        29.92F
$$

WVZ006-222000-
Western West Virginia

CITY           SKY/WX    TMP DP  RH WIND       PRES   REMARKS
HUNTINGTON     CLOUDY    57  53  86 SW7       29.90F
$$

WVZ015-222000-
West Central West Virginia

CITY           SKY/WX    TMP DP  RH WIND       PRES   REMARKS
CHARLESTON     CLOUDY    55  53  93 CALM      29.90F FOG
$$

WVZ022-031-222000-
North Central West Virginia

CITY           SKY/WX    TMP DP  RH WIND       PRES   REMARKS
CLARKSBURG     CLOUDY    62  49  62 VRB5      29.89F
MORGANTOWN     CLOUDY    66  46  48 VRB3      29.89F
$$

WVZ025-035-042-045-222000-
Southern West Virginia

CITY           SKY/WX    TMP DP  RH WIND       PRES   REMARKS
BECKLEY        CLOUDY    53  51  93 SE3       29.94F
LOGAN          CLOUDY    54  54 100 CALM      29.92F FOG
BLUEFIELD      CLOUDY    54  49  83 SE5       29.95F
LEWISBURG      CLOUDY    52  48  85 CALM      29.95F
$$

WVZ047-222000-
Northern Mountains of West Virginia

CITY           SKY/WX    TMP DP  RH WIND       PRES   REMARKS
ELKINS         PTSUNNY   63  44  50 S5        29.91F
$$

WVZ052-222000-
Eastern Panhandle of West Virginia

CITY           SKY/WX    TMP DP  RH WIND       PRES   REMARKS
MARTINSBURG    CLOUDY    63  43  48 CALM      29.90F
PETERSBURG     CLOUDY    66  48  51 CALM      29.89F
$$



USA.gov is the U.S. government's official web portal to all federal, state and local government web resources and services.